Location: Ch�tillon
(48.8024°N, 2.2935°E)
Time: 00:32:29
(UTC+00:00)

NANOSAT C BR1 - Visible Passes

Search period start: 28 June 2022 00:00
Search period end: 08 July 2022 00:00
Orbit: 583 x 601 km, 98.0° (Epoch: 27 June)

Date Brightness Start Highest point End Pass type
(mag) Time Alt. Az. Time Alt. Az. Time Alt. Az.
28 Jun ? 00:48:07 10° ENE 00:50:17 14° E 00:52:26 10° ESE visible
28 Jun ? 02:22:05 10° N 02:26:17 68° WNW 02:29:57 13° SSW visible
29 Jun ? 00:56:23 10° NE 00:59:07 17° E 01:01:50 10° SE visible
29 Jun ? 02:30:52 10° N 02:34:59 56° WNW 02:38:46 12° SSW visible
30 Jun ? 01:04:47 10° NE 01:07:56 20° E 01:10:59 10° SE visible
30 Jun ? 02:39:40 10° N 02:43:41 45° WNW 02:47:35 11° SW visible
01 Jul ? 01:13:17 10° NE 01:16:44 24° E 01:19:48 12° SE visible
01 Jul ? 02:48:29 10° N 02:52:23 38° WNW 02:56:17 10° SW visible
02 Jul ? 01:21:49 10° NE 01:25:31 29° E 01:28:36 13° SSE visible
02 Jul ? 02:57:19 10° N 03:01:03 31° WNW 03:04:47 10° SW visible
03 Jul ? 01:30:24 10° NNE 01:34:18 35° E 01:37:24 14° SSE visible
03 Jul ? 03:06:11 10° N 03:09:43 27° WNW 03:13:15 10° WSW visible
04 Jul ? 01:39:01 10° NNE 01:43:03 43° E 01:46:12 16° SSE visible
05 Jul ? 01:47:39 10° NNE 01:51:48 52° E 01:54:59 16° S visible
06 Jul ? 01:56:19 10° NNE 02:00:32 65° ESE 02:03:45 17° S visible
07 Jul ? 02:05:01 10° NNE 02:09:15 79° ESE 02:12:32 17° S visible
